GFSSE_con_lsi_159.txt.gz
Lid_Strength_Index
0 -1 -1 -1 -1 -1 -1 -1 -1 -1 -1 -1 -1 -1 -2 -2 -2 -2 -2 -2 -2 -2 -2 -2 -2 -1 -1 -2 -2 -2 -2 -2 -2 -2 -2 -2 -2 -2 -2 -2 -3 -1 -2
-0 -1 -1 -1 -1 -1 -1 -1 -1 -1 -1 -1 -1 -1 -1 -1 -1 -2 -2 -2 -2 -1 -2 -2 -1 -1 -1 -2 -2 -2 -2 -2 -2 -2 -2 -2 -2 -2 -2 -2 -3 -1 -2
-0 -1 -1 -1 -1 -1 -1 -1 -1 -1 -1 -1 -1 -1 -1 -1 -1 -2 -2 -2 -1 -1 -1 -1 -2 -1 -1 -1 -1 -2 -2 -2 -2 -2 -2 -1 -1 -2 -2 -2 -2 -2 -2
-1 -1 -1 -1 -1 -1 -1 -1 -1 -1 -1 -1 -1 -1 -1 -1 -1 -1 -1 -1 -1 -1 -1 -1 -2 -2 -1 -1 -1 -2 -2 -2 -1 -2 -1 -1 -1 -1 -2 -1 -2 -2 -1
-1 -0 -0 -1 -2 -1 -1 -1 -1 -1 -1 -1 -1 -1 -1 -1 -1 -1 -1 -1 -1 -1 -1 -1 -1 -2 -1 -1 -1 -2 -2 -1 -1 -1 -1 -1 -1 -1 -1 -1 -1 -1 -1
-0 -0 -0 -1 -1 -1 -1 -1 -2 -2 -1 -1 -1 -2 -1 -2 -2 -1 -1 -1 -1 -1 -1 -1 -1 -1 -1 -1 -1 -1 -1 -1 -1 -0 -0 -0 -1 -1 -0 -0 -0 -1 -1
-0 -1 -1 -1 -1 -1 -1 -1 -1 -2 -2 -1 -1 -1 -2 -2 -2 -1 -2 -1 -1 -1 -1 -1 -1 -1 -1 -1 -1 -1 -1 -1 -0 0 0 0 -0 0 0 0 0 0 0
-0 -1 -1 0 -1 -1 -2 -2 -2 -2 -2 -1 -1 -1 -2 -2 -2 -2 -2 -1 -1 -1 -1 -1 -1 -1 -1 -1 -1 -1 -1 -1 0 0 0 0 0 1 0 1 1 1 0
-1 0 -1 -1 -1 -0 -1 -1 -2 -2 -2 -2 -3 -2 -2 -2 -2 -2 -2 -3 -1 -1 -1 -1 -1 -1 -1 -1 -1 -1 -1 -1 1 0 1 0 -1 0 1 1 1 1 0
-0 -0 -0 -0 -1 -1 -1 -0 -1 -1 -2 -2 -2 -2 -1 -1 -1 -1 -1 -2 -3 -2 -2 -1 -1 -1 -0 -1 -0 -1 -1 0 1 -0 0 0 -0 0 0 1 1 1 1
1 0 -0 0 -0 -1 -1 -0 0 -0 -1 -1 -1 0 0 -1 -1 -1 -1 -2 -2 -2 -2 -2 -1 -1 -1 -1 -1 -0 0 -0 -0 0 0 -0 -0 -0 0 0 0 0 0
1 1 -0 -0 -0 -0 -1 -1 -1 -1 -1 -1 -1 -1 -1 -1 -1 -1 0 -0 -1 -1 -2 -2 -2 -2 -0 0 0 1 1 0 -0 -0 -0 -1 -0 -1 -1 -0 -0 -0 -0
1 1 -0 -0 -1 -1 -1 -1 -1 -1 -1 -1 -1 -1 -1 -1 -1 -1 -0 -0 -1 1 -1 -1 -1 -1 -1 -0 -0 0 0 0 0 0 0 -0 -0 -1 -1 -1 -1 -1 -1
1 1 -0 -0 -0 -1 -1 -1 -1 -0 -1 -1 -1 -1 -1 -1 -1 -1 -1 -1 -1 -0 -1 -1 -1 -1 -1 -0 -0 0 0 0 0 -0 0 1 -0 -1 -1 -2 -2 -2 -2
1 1 0 -0 -0 -0 -0 -1 -1 -1 -1 -1 -1 -1 -1 -1 -0 -1 -1 -1 -1 -1 -0 -0 -0 -0 -0 0 0 0 1 0 0 -0 -0 2 1 -0 -1 -1 -2 -2 -2
1 1 0 -0 -0 -0 -0 -0 -0 -1 -1 -1 -1 -1 -1 -1 -1 -1 -1 -0 0 0 -0 -0 0 1 1 0 1 1 1 1 0 0 -0 -0 1 1 0 -1 -2 -2 -2
1 0 0 0 -0 -0 -0 -0 -0 -1 -1 -1 -1 -1 -1 -1 -1 -1 -0 -0 -0 -0 -0 0 1 0 1 1 1 1 1 1 1 1 1 0 -0 1 0 0 -1 -2 -2
1 1 0 0 -0 -0 -0 -0 -0 0 -0 -0 -1 -1 -1 -1 -1 -1 -0 -0 -1 -1 -0 0 1 1 2 2 2 2 1 1 1 1 2 1 0 0 0 0 -1 -2 -2
1 1 1 0 0 -0 -0 -0 -0 -0 -0 -0 -0 -1 -1 -1 -1 -0 -0 -0 -1 -0 -0 -0 0 1 1 1 1 1 1 1 2 2 2 2 2 1 -0 0 1 0 -2
1 1 1 0 0 -0 -0 -0 -0 -0 -0 -0 -0 1 -1 -1 -1 -0 -0 -0 -0 0 0 0 1 0 1 1 1 1 1 1 1 1 1 2 2 2 1 1 1 1 1
2 2 2 2 1 0 0 1 1 1 1 0 -0 -0 -0 0 -0 -0 -0 0 -0 0 0 0 1 1 1 1 2 2 2 1 1 1 1 1 1 1 1 1 1 1 0
3 3 2 2 1 1 0 0 0 1 0 0 -0 -0 -0 -0 -0 0 0 0 1 1 1 1 1 2 2 1 3 4 5 3 2 1 1 1 1 1 1 1 1 0 1
4 3 3 2 2 1 0 0 0 0 0 1 1 1 0 -0 -0 -0 0 1 1 1 1 2 2 1 3 2 2 3 6 7 4 2 2 2 1 1 1 1 1 1 1
5 4 3 2 1 0 0 1 1 2 2 1 1 0 0 -0 -0 0 -0 -0 0 0 1 1 1 1 2 3 3 2 2 3 6 6 4 3 2 2 1 1 1 1 1
6 5 4 3 4 2 3 1 1 2 1 1 1 1 1 0 0 1 0 0 0 0 0 1 1 1 1 2 2 3 4 3 3 4 6 4 2 2 2 1 1 1 1
6 6 6 6 6 6 5 6 5 6 6 6 5 5 4 4 5 6 4 4 2 1 1 1 0 1 1 1 1 2 3 4 4 4 5 4 4 2 1 1 1 1 1

GFSSE_con_lsi_162.txt.gz
Lid_Strength_Index
1 -0 -1 -1 -1 -1 -1 -1 -1 -2 -1 -1 -1 -2 -2 -2 -2 -2 -2 -2 -2 -2 -2 -2 -2 -2 -2 -2 -2 -2 -2 -2 -2 -2 -2 -2 -2 -2 -2 -2 -3 -1 -2
0 -0 -1 -1 -1 -1 -1 -1 -2 -1 -1 -1 -1 -2 -2 -2 -2 -2 -2 -2 -2 -2 -2 -2 -2 -2 -2 -1 -2 -2 -2 -2 -2 -2 -2 -2 -2 -2 -2 -2 -2 -1 -2
0 -1 -1 -1 -1 -2 -2 -1 -1 -1 -2 -2 -2 -2 -2 -2 -2 -2 -2 -2 -2 -1 -2 -2 -2 -2 -1 -1 -2 -2 -2 -2 -2 -3 -3 -1 -0 -2 -2 -2 -2 -2 -2
-0 -1 -1 -1 -2 -2 -1 -2 -2 -2 -2 -1 -1 -2 -2 -2 -2 -1 -1 -2 -1 -2 -2 -2 -2 -2 -1 -1 -1 -2 -2 -1 -2 -2 -0 -1 -0 -2 -1 -1 -1 -1 -2
-0 -0 -1 -1 -2 -1 -1 -1 -2 -2 -2 -2 -1 -1 -2 -2 -2 -2 -1 -1 -1 -1 -2 -2 -2 -2 -1 -1 -1 -1 -1 -1 -2 -1 2 0 0 -1 -1 -1 -1 -1 -2
0 -1 -1 -1 -2 -1 -1 -1 -1 -1 -1 -1 -1 -1 -2 -2 -2 -2 -2 -2 -1 -1 -1 -1 -1 -2 -1 -1 -1 -1 -1 -1 -2 2 2 0 1 -1 -0 -0 -0 -0 -2
0 -0 -0 -1 -1 -1 -1 -1 -2 -2 -2 -1 -2 -2 -1 -2 -2 -3 -2 -2 -1 -1 -0 -1 -1 -1 -1 -1 -1 -1 -1 -1 0 2 2 1 1 -0 0 0 0 1 0
0 -0 -1 0 -1 -1 -2 -2 -2 -2 -2 -2 -2 -1 -1 -2 -2 -2 -2 -2 -1 -1 -1 -1 -1 -1 -1 -1 -1 -1 -2 -1 1 2 2 2 -0 1 1 1 1 1 1
-0 -0 -0 -1 -0 0 -1 -1 -1 -2 -2 -2 -2 -2 -2 -2 -2 -2 -2 -3 -2 -1 -2 -1 -1 -1 -1 -1 -1 -1 -1 -1 1 2 1 2 -1 -0 0 1 1 1 1
1 0 -0 -0 -1 -0 -0 0 -0 -1 -1 -2 -2 -1 -1 -0 -1 -1 -1 -2 -2 -2 -2 -2 -1 -1 -0 -1 -1 -1 -1 -0 2 2 1 2 -1 -0 -0 0 0 1 1
1 1 0 0 -0 -0 -0 0 0 -0 -1 -1 -1 -0 0 -0 -0 -0 -0 -1 -2 -2 -2 -2 -2 -1 -1 -1 -1 -0 1 1 1 2 2 -0 -1 -0 -0 -0 0 0 0
2 1 1 1 0 -0 -0 0 1 0 -0 -0 -0 0 0 0 0 -0 1 0 -1 -1 -2 -2 -2 -1 0 2 2 0 2 2 2 2 2 -1 -1 -1 -1 -1 -1 -1 -1
2 1 1 1 1 1 1 0 -0 -0 1 0 0 0 0 0 0 1 1 1 1 1 0 -0 -0 -0 1 1 2 2 3 3 3 2 1 -1 -1 -1 -1 -1 -1 -2 -1
2 2 1 1 0 1 1 1 1 1 0 0 0 0 0 1 1 1 1 1 1 1 2 1 0 0 1 1 1 2 2 3 4 4 3 1 -1 -1 -1 -1 -2 -2 -2
3 2 1 1 1 1 1 1 1 1 1 0 0 0 0 1 1 1 1 1 1 1 1 1 1 1 1 1 1 1 2 3 3 3 3 3 1 -1 -1 -1 -2 -2 -1
2 2 1 1 1 1 1 1 1 1 1 1 1 0 -0 1 1 1 1 1 1 1 2 2 2 2 3 2 2 2 3 3 3 3 3 3 3 1 -0 -1 -2 -2 -2
2 2 2 1 1 1 1 1 0 0 1 1 1 0 1 -0 1 1 1 1 1 1 1 2 2 2 3 2 3 2 2 3 3 3 3 3 3 3 1 0 0 -0 -2
3 2 2 2 1 1 1 1 1 1 0 1 1 1 0 0 -0 0 1 1 1 1 1 2 2 3 3 3 3 3 3 2 2 2 2 2 3 2 2 1 -0 -0 -1
3 3 3 2 2 1 1 1 1 1 1 0 0 0 1 0 0 0 0 0 0 0 1 1 2 2 3 3 3 3 3 2 2 1 2 2 2 2 1 1 2 1 -0
4 4 4 3 3 2 1 1 1 1 1 1 1 0 -0 0 0 1 1 0 0 1 1 1 2 2 2 3 2 3 3 2 1 2 2 2 2 2 2 2 1 2 2
5 5 4 4 4 3 3 2 2 2 2 2 1 1 -0 -0 -0 1 0 1 1 1 1 1 1 1 1 1 3 2 2 1 1 1 1 1 2 1 2 2 1 1 1
6 6 5 4 3 3 3 2 1 2 2 1 2 1 0 0 1 -0 1 1 1 1 1 1 2 2 2 2 3 3 5 3 2 1 1 1 2 1 1 1 1 1 1
7 7 5 5 4 2 2 2 1 2 2 1 1 1 0 -0 0 1 -0 1 1 1 1 1 2 2 3 2 1 3 6 7 5 2 2 1 1 1 1 1 1 1 1
8 7 7 5 6 4 4 2 2 3 3 2 2 1 1 0 0 0 0 1 1 0 1 1 1 1 1 3 2 2 2 2 6 6 3 3 2 2 1 2 2 2 1
9 9 8 7 8 7 5 5 5 4 4 5 4 4 5 6 7 6 5 4 2 1 1 1 1 1 1 2 2 3 3 2 2 4 6 4 2 2 1 1 1 1 1
10 10 10 9 9 8 7 6 7 8 8 7 8 7 7 8 8 8 7 6 5 5 5 4 2 1 1 1 1 2 2 4 4 4 5 4 4 2 1 1 1 1 1

GFSSE_con_lsi_165.txt.gz
Lid_Strength_Index
1 -0 -1 -2 -1 -1 -1 -1 -2 -1 -1 -2 -2 -2 -2 -2 -2 -2 -2 -2 -2 -2 -2 -2 -2 -2 -2 -2 -2 -2 -2 -2 -2 -2 -2 -2 -2 -2 -2 -2 -2 -1 -2
-0 -1 -1 -1 -1 -1 -1 -1 -1 -2 -1 -2 -2 -2 -2 -2 -2 -2 -2 -2 -2 -2 -2 -2 -2 -2 -2 -2 -2 -2 -2 -2 -2 -2 -3 -2 -2 -2 -2 -2 -2 -1 -2
-0 -1 -1 -1 -2 -2 -1 -1 -1 -2 -1 -2 -2 -2 -2 -2 -2 -2 -2 -3 -2 -2 -2 -2 -2 -1 -2 -2 -2 -2 -2 -2 -2 -2 -2 -0 -0 -2 -2 -2 -2 -1 -1
-0 -0 -1 -1 -2 -2 -2 -1 -1 -2 -1 -2 -2 -2 -2 -2 -2 -1 -1 -3 -2 -2 -2 -2 -2 -1 -2 -2 -2 -2 -2 -2 -3 -2 0 -0 -0 -2 -1 -1 -1 -1 -1
-0 -0 -1 -1 -2 -1 -1 -1 -2 -2 -2 -2 -1 -2 -2 -2 -2 -2 -2 -2 -2 -2 -2 -2 -2 -2 -2 -2 -2 -1 -1 -2 -3 -0 2 1 1 -1 -1 -1 -1 -1 -1
-0 -1 -1 -1 -2 -1 -1 -1 -1 -1 -1 -1 -2 -2 -2 -2 -2 -3 -2 -1 -1 -1 -1 -2 -1 -1 -1 -1 -1 -1 -1 -1 -1 3 2 -0 1 -1 -0 -0 -0 -0 -1
0 -0 -1 -1 -1 -1 -1 -1 -1 -1 -1 -1 -1 -1 -2 -2 -2 -3 -3 -2 -1 -1 -1 -1 -1 -1 -1 -1 -1 -1 -1 -1 1 2 2 2 1 -0 -0 -0 0 1 1
0 -0 -1 0 -1 -1 -1 -2 -2 -2 -2 -2 -2 -2 -2 -2 -2 -2 -2 -2 -1 -1 -1 -1 -1 -1 -1 -1 -1 -1 -1 -1 1 2 3 2 -1 -1 0 1 0 0 1
0 -0 -0 -0 -0 0 -1 -1 -1 -2 -2 -2 -2 -2 -2 -2 -2 -2 -2 -2 -1 -1 -1 -1 -1 -0 -0 -1 -1 -1 -1 -0 2 2 2 2 -1 -0 -0 0 1 1 0
1 0 0 -0 -0 -0 -0 0 -0 -1 -1 -1 -1 -1 -1 -0 -1 -1 -1 -2 -2 -2 -2 -2 -1 -1 -0 0 -0 0 0 0 2 3 2 2 -1 -1 -1 -0 0 0 0
2 1 0 0 0 0 0 1 1 0 -1 -0 -1 -0 0 0 -0 -0 -0 -1 -2 -2 -2 -2 -2 -2 -1 -0 -0 0 1 2 2 3 3 1 -1 -1 -1 -1 -0 -0 0
3 2 1 1 1 1 -0 0 1 1 1 0 -0 0 0 0 -0 -0 1 0 -1 -1 -2 -2 -2 -1 -0 1 2 1 2 3 3 2 3 1 0 -0 -1 -1 -1 -1 -0
2 1 1 1 1 1 1 2 1 1 1 1 1 1 0 1 1 0 2 2 2 1 1 -0 -0 0 1 1 2 3 3 3 3 3 2 0 -0 -0 -0 -1 -2 -2 -2
3 2 1 1 1 1 1 2 1 1 2 1 1 1 1 2 2 1 2 2 2 1 2 2 2 1 1 1 2 2 3 4 4 4 3 1 -0 -1 -1 -1 -0 -1 -1
3 2 2 1 1 1 2 1 2 2 2 1 1 1 1 1 2 2 1 2 2 1 1 2 2 1 1 1 1 2 2 3 3 3 4 4 1 -0 -1 -1 -1 -1 -1
2 3 2 1 1 1 1 1 1 2 2 2 1 1 1 1 2 2 2 2 2 2 1 2 2 2 2 2 1 1 2 2 3 3 3 3 2 0 -1 -1 -1 -1 -1
3 2 2 2 1 1 1 1 1 1 1 2 1 1 1 1 2 2 2 2 2 2 2 2 2 3 3 3 3 3 2 2 3 3 3 3 3 2 0 -1 -2 -2 -2
4 4 3 3 3 2 2 1 1 1 1 1 2 1 1 1 1 1 2 2 2 2 2 2 3 3 3 3 4 3 3 3 2 3 2 3 3 2 2 0 -1 -2 -2
5 5 4 4 4 3 2 1 1 1 1 1 1 1 1 0 1 0 1 0 1 1 1 1 2 2 3 3 3 3 3 3 3 2 2 2 2 2 2 2 1 1 -1
6 5 5 5 5 4 4 2 0 1 1 1 2 1 1 -0 0 1 1 1 1 1 1 1 1 1 2 2 2 2 2 2 2 2 2 2 2 2 2 2 2 2 2
6 6 6 5 5 4 5 5 2 3 2 2 1 1 0 0 -0 0 1 1 1 1 1 1 2 2 2 2 2 2 2 1 1 1 0 1 1 1 2 2 2 2 1
7 6 6 5 5 4 4 5 3 1 2 1 1 1 0 1 0 -0 1 1 1 1 2 2 2 2 2 1 3 4 5 3 2 1 1 1 1 1 2 2 1 2 2
8 7 6 6 6 6 5 3 3 2 2 2 1 1 1 1 0 0 0 0 1 1 1 1 2 2 3 2 2 3 6 7 5 3 3 1 1 1 1 2 1 1 0
9 8 7 7 8 7 6 5 4 3 4 3 2 4 6 6 6 5 4 2 1 1 1 1 1 2 2 3 3 2 2 3 6 6 3 2 1 2 2 2 1 1 0
9 9 9 9 9 9 8 7 6 5 5 5 5 7 7 8 9 8 7 6 5 5 5 5 3 1 1 2 2 3 3 2 2 4 6 4 2 2 1 2 1 1 1
10 10 10 10 10 10 11 10 10 9 8 8 9 9 10 10 11 10 9 9 9 9 8 6 5 5 5 5 5 5 4 4 4 4 5 4 4 2 2 1 1 1 1

GFSSE_con_lsi_168.txt.gz
Lid_Strength_Index
1 -0 -1 -1 -1 -1 -2 -1 -1 -2 -1 -2 -2 -2 -2 -2 -2 -2 -2 -2 -2 -2 -2 -2 -2 -2 -2 -2 -2 -2 -2 -2 -2 -2 -2 -2 -2 -2 -2 -2 -2 -0 -1
-0 -0 -1 -2 -1 -1 -1 -1 -1 -1 -1 -2 -2 -2 -2 -2 -2 -2 -2 -2 -2 -2 -2 -2 -2 -2 -2 -2 -2 -2 -2 -2 -2 -2 -2 -2 -2 -2 -2 -2 -2 -1 -1
-0 -0 -1 -1 -2 -1 -1 -1 -1 -1 -1 -2 -2 -2 -2 -2 -2 -2 -2 -2 -2 -2 -2 -2 -1 -1 -2 -2 -2 -2 -2 -2 -2 -2 -2 0 0 -1 -1 -1 -1 -1 -2
-0 -0 -0 -1 -2 -2 -1 -1 -1 -2 -2 -1 -1 -2 -2 -2 -2 -2 -2 -2 -2 -2 -2 -2 -1 -2 -1 -2 -2 -2 -2 -2 -2 -2 -0 0 -0 -1 -1 -1 -1 -1 -1
-0 -0 -0 -1 -2 -1 -1 -1 -1 -1 -2 -1 -2 -2 -2 -2 -2 -2 -2 -2 -2 -2 -2 -1 -1 -1 -1 -1 -2 -1 -1 -2 -1 1 1 1 1 -1 -1 -0 -1 -0 -1
-0 -0 -0 -1 -1 -1 -1 -1 -1 -1 -1 -1 -1 -1 -2 -2 -2 -1 -1 -1 -1 -1 -1 -1 -1 -1 -1 -1 -1 -1 -1 -1 0 3 2 0 1 -1 -1 -0 0 0 -1
0 -1 -1 -1 -1 -1 -1 -1 -1 -1 -1 -1 -1 -1 -2 -2 -2 -2 -2 -1 -1 -1 -0 -1 -1 -1 -1 -1 -1 -1 -1 -1 2 4 3 2 2 -0 -1 -0 0 1 0
0 -0 -0 0 -1 -1 -2 -2 -2 -2 -2 -2 -2 -2 -2 -2 -2 -2 -1 -1 -1 -0 -0 -1 -1 -1 -1 -1 -1 -1 -1 -0 2 3 4 4 1 -0 -0 0 0 0 0
0 -0 -0 -0 -0 0 -1 -1 -1 -2 -2 -2 -2 -2 -2 -2 -2 -2 -2 -2 -2 -1 -2 -1 -1 -1 -1 -1 -1 -1 -1 -0 2 3 3 3 0 0 0 1 0 0 0
1 0 0 0 -0 -0 -0 0 -0 -1 -1 -1 -1 -1 -1 -0 -1 -1 -1 -2 -2 -2 -2 -2 -2 -2 -1 -1 -2 -1 -0 -0 1 2 3 3 -0 -1 -0 0 1 1 0
2 1 1 1 1 0 0 0 1 0 -0 -0 -0 0 0 0 0 0 0 -1 -2 -2 -2 -2 -2 -2 -2 -1 -1 -1 0 2 3 2 2 1 -1 -2 -2 -1 -0 0 1
3 2 2 1 1 1 -0 1 1 1 0 0 0 0 0 0 0 -0 1 0 -1 -1 -2 -2 -2 -1 -0 1 2 1 2 3 3 3 3 1 -1 -2 -2 -2 -2 -1 -0
3 2 2 2 1 1 1 1 2 2 2 2 1 1 0 0 1 1 1 1 2 2 0 -0 0 0 1 1 2 3 3 3 4 4 3 1 -0 -1 -1 -1 -1 -1 -1
3 2 1 1 2 2 2 2 2 2 2 2 1 1 1 2 2 2 1 2 3 2 2 2 2 1 1 1 1 2 2 3 4 4 4 2 0 -1 -1 -1 -2 -1 -2
3 2 2 1 1 1 2 2 2 2 2 2 2 1 1 2 2 2 2 2 2 2 2 2 2 2 1 1 1 1 2 3 3 3 3 3 2 -0 -1 -2 -2 -2 -2
3 3 2 2 1 1 1 1 1 2 2 2 2 2 2 1 2 2 3 3 2 2 2 2 2 2 2 2 2 1 2 2 3 3 3 3 2 0 -1 -1 -2 -2 -2
3 3 3 2 1 2 2 2 1 1 2 2 2 2 2 2 2 2 2 3 3 2 2 2 2 2 3 2 2 2 2 3 3 3 3 3 3 2 1 -1 -1 -2 -2
3 4 4 4 2 1 2 2 2 2 1 1 2 2 2 2 2 2 2 2 2 2 3 3 3 3 4 4 4 3 3 3 3 3 3 3 3 2 2 0 -1 -1 -1
6 6 5 5 5 5 3 1 1 1 2 2 2 2 2 2 1 1 1 1 1 1 2 2 2 2 3 3 3 3 3 3 3 2 3 2 2 1 1 2 1 1 -1
6 6 5 5 5 4 4 5 2 0 0 2 2 2 1 1 0 1 1 1 1 1 2 1 1 2 2 2 3 2 2 2 2 2 2 1 2 2 2 2 2 3 2
7 6 6 5 5 4 5 6 5 3 1 1 2 2 1 1 0 0 0 1 1 2 1 1 1 2 2 2 2 2 2 1 2 2 1 1 1 2 1 2 3 3 2
7 7 6 6 6 6 5 5 5 4 2 1 0 1 1 1 0 1 0 0 1 1 1 2 2 2 2 2 3 4 5 3 2 1 1 1 2 1 1 1 2 1 1
9 8 7 8 7 7 6 5 3 3 2 2 2 3 5 4 4 3 2 1 0 1 1 1 2 2 3 2 2 3 6 7 5 3 3 1 1 1 1 1 1 1 1
9 9 8 8 9 8 7 6 5 4 4 2 5 6 8 8 7 6 5 5 4 4 4 3 2 2 2 3 3 2 2 3 5 6 3 3 2 2 2 2 2 1 1
10 10 10 10 10 10 10 8 7 6 6 5 7 8 9 9 8 8 7 7 7 6 5 4 5 5 4 3 3 3 3 3 3 4 6 4 2 2 2 1 2 2 5
11 11 12 11 12 12 12 11 10 10 9 9 8 9 9 10 10 10 9 10 9 8 7 7 6 7 7 7 6 6 7 7 7 6 5 4 6 4 5 2 6 8 8

GFSSE_con_lsi_171.txt.gz
Lid_Strength_Index
1 -0 -1 -1 -1 -1 -1 -1 -1 -1 -1 -1 -1 -2 -2 -2 -2 -2 -2 -2 -2 -2 -2 -2 -2 -2 -2 -2 -2 -2 -2 -2 -2 -2 -2 -2 -2 -2 -2 -1 -2 0 -2
-0 -0 -1 -2 -1 -2 -1 -1 -1 -1 -1 -2 -1 -1 -1 -1 -1 -1 -2 -2 -2 -2 -2 -2 -1 -2 -2 -2 -2 -2 -2 -1 -1 -2 -2 -2 -2 -1 -1 -1 -1 -0 -2
-0 -0 -1 -1 -2 -1 -1 -1 -1 -1 -1 -2 -1 -1 -1 -1 -1 -1 -1 -2 -2 -2 -2 -1 -1 -2 -2 -2 -2 -2 -2 -2 -1 -1 -2 1 1 -1 -1 -1 -1 -1 -1
-0 -0 -1 -1 -1 -1 -1 -1 -1 -1 -1 -1 -1 -1 -1 -2 -2 -1 -2 -1 -2 -1 -1 -1 -1 -1 -1 -1 -2 -2 -2 -1 -1 -2 1 1 1 -1 -1 -0 -0 -0 -1
-0 -0 -0 -1 -2 -1 -1 -1 -1 -1 -1 -1 -2 -2 -2 -2 -2 -2 -1 -2 -1 -1 -1 -1 -1 -1 -1 -1 -1 -1 -1 -1 -0 1 2 2 2 0 -0 -0 -0 -0 -0
0 -0 -0 -1 -1 -1 -1 -1 -1 -1 -1 -2 -2 -2 -2 -2 -2 -2 -2 -1 -1 -1 -1 -1 -1 -1 -1 -1 -1 -1 -1 -0 1 4 3 2 2 0 0 0 1 0 -0
0 -0 -0 -1 -1 -1 -1 -1 -1 -2 -2 -2 -1 -2 -2 -2 -2 -2 -2 -1 -1 -1 -0 -1 -1 -1 -1 -1 -1 -1 -0 0 4 4 3 3 2 -0 0 1 1 1 1
0 -0 -0 0 -0 -1 -1 -2 -2 -2 -2 -2 -2 -2 -2 -2 -2 -2 -1 -1 -1 -1 -1 -1 -1 -1 -1 -1 -1 -1 -2 -1 2 3 4 3 1 -1 -0 -0 0 0 0
0 0 0 0 0 0 -1 -1 -1 -2 -2 -2 -2 -2 -2 -2 -2 -2 -2 -2 -2 -2 -2 -1 -1 -1 -1 -1 -1 -1 -1 -1 1 2 2 3 1 -2 -1 -1 0 0 -0
1 1 1 1 1 0 0 1 0 -1 -1 -1 -1 -1 -0 -0 -1 -1 -1 -2 -2 -2 -2 -2 -2 -2 -1 -1 -2 -2 -1 -0 2 2 3 3 0 -1 -2 -2 -1 -0 -0
2 2 1 1 1 1 0 0 1 0 -0 -0 0 0 1 0 0 0 0 -1 -2 -2 -2 -2 -2 -2 -2 -1 -1 -1 -0 3 4 3 3 2 0 -1 -2 -2 -1 -1 -0
3 2 2 1 1 1 0 0 1 0 0 0 1 1 1 0 0 0 1 1 -1 -1 -2 -2 -2 -1 -0 1 2 1 2 2 3 3 3 1 -1 -2 -2 -2 -1 -1 -1
2 3 2 2 1 1 1 1 2 2 2 2 1 1 1 0 1 1 1 2 2 2 1 -0 0 1 1 1 2 2 2 3 3 3 3 2 0 -1 -2 -2 -2 -2 -2
3 2 2 2 2 2 2 2 2 2 2 2 2 2 2 2 2 2 1 1 2 2 2 2 2 1 1 1 1 2 2 3 3 3 4 2 1 -1 -1 -2 -2 -2 -2
3 2 2 2 2 2 2 2 2 2 2 2 2 2 2 2 3 2 2 2 1 2 3 3 3 2 2 2 1 1 2 2 2 3 4 3 2 0 -1 -2 -2 -2 -2
3 3 2 2 1 1 1 2 2 2 2 2 2 2 2 2 3 3 3 3 3 3 2 2 2 2 2 2 2 2 2 2 2 3 3 3 2 1 -1 -2 -2 -2 -2
3 3 3 2 2 2 2 2 2 2 2 2 2 2 2 2 3 3 3 3 3 3 3 3 3 3 3 3 3 2 2 2 3 3 3 3 3 2 1 -1 -2 -2 -2
5 3 3 3 2 2 2 2 2 2 2 2 2 2 2 2 2 3 2 3 3 3 3 4 4 4 3 3 3 4 3 3 3 3 3 3 3 2 1 0 -0 -1 -1
5 5 6 6 6 6 4 2 2 2 2 2 2 2 2 2 2 2 1 1 1 2 2 2 2 2 2 2 2 2 2 2 2 2 3 2 2 1 2 2 1 1 0
7 6 6 5 5 4 4 5 5 2 0 1 1 1 1 1 2 2 1 1 1 2 2 2 2 3 2 3 3 2 2 2 2 2 2 2 2 3 2 2 2 2 2
7 7 6 5 6 5 5 5 5 5 2 1 0 0 1 1 1 1 1 1 1 2 1 2 2 3 3 2 3 2 2 2 2 2 2 2 2 1 1 1 1 1 1
8 7 7 7 7 6 6 5 5 5 4 2 1 1 1 2 2 1 1 1 1 1 1 1 2 3 2 2 3 3 5 4 3 2 2 2 2 1 0 1 1 1 2
9 8 8 8 8 8 7 6 4 3 3 2 1 4 5 4 4 3 1 1 2 1 1 1 1 2 3 2 2 3 6 7 5 3 3 2 1 1 2 3 3 3 5
9 9 9 9 9 9 8 7 5 4 4 3 4 6 7 7 6 6 5 5 4 3 3 2 2 1 2 3 3 2 2 3 5 6 3 3 2 2 2 3 7 9 7
10 10 10 10 11 11 11 9 7 6 4 4 7 8 9 9 9 8 7 7 7 5 4 4 4 4 3 3 3 3 3 3 3 4 6 4 2 3 4 7 9 10 9
11 12 12 12 12 12 12 12 10 8 6 6 7 9 11 11 9 9 8 8 8 7 6 7 7 7 6 6 7 7 6 5 7 6 6 6 7 5 6 8 10 11 10

GFSSE_con_lsi_174.txt.gz
Lid_Strength_Index
1 -0 -1 -2 -1 -1 -1 -1 -1 -1 -1 -1 -1 -2 -2 -2 -2 -2 -2 -2 -2 -2 -2 -2 -2 -2 -2 -2 -2 -2 -2 -2 -2 -2 -2 -2 -2 -2 -2 -2 -2 0 -2
0 -0 -1 -2 -2 -1 -1 -1 -1 -1 -1 -1 -2 -2 -1 -1 -1 -1 -2 -2 -2 -2 -2 -2 -2 -2 -2 -2 -2 -2 -2 -2 -2 -2 -2 -2 -2 -1 -2 -1 -2 -1 -2
0 -0 -1 -1 -2 -1 -1 -1 -1 -1 -2 -1 -1 -1 -1 -2 -1 -1 -1 -2 -2 -2 -1 -1 -1 -2 -2 -2 -2 -2 -2 -1 -1 -2 -1 1 2 -1 -1 -0 -1 -1 -1
-0 -0 -1 -1 -2 -1 -1 -1 -1 -1 -1 -1 -1 -1 -1 -1 -1 -1 -1 -1 -1 -1 -1 -1 -1 -1 -2 -2 -2 -2 -2 -1 -1 -2 2 2 2 -0 -0 0 -0 -0 -0
0 -0 -0 -1 -1 -1 -1 -1 -1 -1 -1 -1 -1 -1 -1 -2 -2 -2 -1 -2 -1 -1 -1 -1 -1 -2 -1 -1 -1 -1 -1 -0 0 2 3 3 2 0 -1 -1 -0 -0 -0
0 -0 -0 -1 -1 -1 -1 -1 -1 -1 -1 -1 -2 -2 -2 -2 -2 -2 -1 -1 -1 -1 -1 -1 -1 -1 -1 -1 -1 -1 -1 0 2 4 3 2 2 -1 -0 -0 0 0 -0
1 0 -0 -1 -1 -2 -1 -1 -1 -1 -1 -1 -2 -2 -2 -2 -2 -2 -2 -1 -1 -1 -1 -1 -1 -1 -1 -1 -1 -1 -1 -0 3 4 3 2 2 -1 -0 -0 0 0 0
1 0 0 1 -0 -1 -1 -2 -2 -2 -2 -2 -1 -2 -2 -2 -2 -2 -1 -1 -1 -1 -1 -1 -1 -1 -1 -1 -1 -1 -1 -1 2 3 4 3 1 -1 -1 -0 0 0 0
1 0 0 0 0 0 -1 -1 -1 -1 -1 -2 -2 -2 -2 -2 -2 -2 -2 -2 -1 -1 -1 -1 -1 -1 -1 -1 -1 -2 -1 -1 2 2 2 4 1 -1 -1 -1 -1 -0 -0
1 1 1 1 1 1 0 0 0 -1 -1 -1 -1 -0 -0 -0 -1 -1 -1 -2 -2 -2 -2 -2 -2 -1 -1 -1 -2 -2 -1 -0 3 3 3 3 0 -1 -2 -2 -1 -1 -0
2 2 1 1 1 1 1 0 1 0 -0 -0 0 1 1 1 1 1 1 -1 -2 -2 -2 -2 -2 -2 -2 -2 -1 -1 -0 2 3 3 3 2 -0 -1 -2 -2 -2 -2 -1
3 2 2 2 1 1 0 1 1 0 1 0 0 1 1 1 1 0 2 1 -1 -1 -2 -2 -2 -1 -0 1 1 1 2 3 3 3 3 1 -0 -1 -2 -2 -2 -2 -2
3 3 2 2 2 2 2 2 2 2 2 1 1 1 1 1 2 1 1 1 2 2 1 0 0 1 1 1 1 2 2 3 3 3 3 1 -0 -1 -2 -2 -2 -2 -2
3 2 2 2 2 2 2 2 2 2 2 2 2 2 2 3 3 2 2 1 2 2 2 2 2 2 1 1 1 2 2 2 2 3 3 2 1 -1 -1 -2 -2 -2 -2
4 3 2 2 2 2 2 2 2 2 2 2 3 2 3 3 3 3 3 2 2 2 2 3 3 3 3 2 2 2 2 2 2 2 3 3 1 -0 -1 -2 -2 -2 -2
3 3 2 2 2 2 2 2 2 2 2 3 3 2 3 3 3 4 4 3 3 3 2 2 3 3 3 3 2 2 2 2 2 2 3 3 2 0 -1 -2 -2 -2 -2
3 3 3 2 2 2 2 2 2 2 2 2 2 3 2 3 3 3 3 4 4 4 4 4 4 4 4 3 3 3 2 2 2 2 3 3 3 2 1 -1 -2 -2 -2
4 4 4 3 2 2 2 2 2 2 2 2 2 2 3 2 2 3 3 3 2 2 2 3 3 3 4 3 2 2 2 2 3 3 3 3 2 2 2 1 0 -1 -1
5 5 6 6 5 5 4 3 2 2 2 2 2 2 2 2 2 2 3 2 2 1 2 2 3 2 2 3 3 2 2 2 2 2 2 2 2 2 2 2 1 1 0
6 6 6 6 6 6 6 6 6 5 3 1 1 1 1 1 2 2 2 2 2 1 1 2 2 3 2 3 3 3 2 2 2 2 2 3 2 2 2 2 1 2 1
7 7 7 6 6 5 5 6 6 6 5 3 2 0 0 0 0 1 2 2 2 2 1 1 2 2 3 3 3 3 2 2 2 3 3 3 2 2 1 1 1 2 3
8 8 7 6 7 6 6 6 5 5 4 4 2 1 0 1 1 1 2 2 2 2 2 2 2 3 2 2 3 4 5 4 4 3 2 2 2 1 1 2 5 6 7
9 9 8 8 8 8 8 7 5 5 4 4 2 1 3 3 3 2 2 2 2 2 2 2 1 2 3 2 2 3 6 7 5 4 3 2 1 2 3 8 8 9 8
9 9 9 9 9 9 9 7 6 5 5 4 3 4 5 5 5 5 5 4 3 3 2 2 2 1 1 3 2 2 2 3 5 6 4 3 3 4 7 9 10 10 10
10 11 11 11 11 11 10 9 7 6 5 5 6 7 7 7 8 7 7 6 6 5 4 4 3 3 2 2 2 3 3 4 3 5 6 4 5 8 10 12 11 11 11
12 12 12 12 13 13 12 11 9 7 6 6 6 7 8 9 10 10 9 7 6 6 6 6 6 6 6 5 5 5 4 5 6 5 5 7 6 9 11 11 12 12 12